www.pogodaiklimat.ru
ПОГОДА в Аэропорту Морис Бишоп
Время
(UTC), дата
12 8.10
15 8.10
18 8.10
21 8.10
00 9.10
03 9.10
12 9.10
15 9.10
18 9.10
21 9.10
00 10.10
03 10.10
06 10.10
09 10.10
21 10.10
00 11.10
03 11.10
06 11.10
09 11.10
12 11.10
15 11.10
18 11.10
03 12.10
06 12.10
09 12.10
12 12.10
15 12.10
18 12.10
21 12.10
00 13.10
12 13.10
15 13.10
18 13.10
21 13.10
00 14.10
03 14.10
06 14.10
09 14.10
12 14.10
15 14.10
18 14.10
21 14.10
00 15.10
Ветер
(напр.,м/с)
Видим. Явления Облачность Т
(С)
Тd
(С)
f
(%)
Тe
(С)
Тes
(С)
Комфортность P
(гПа)
Po
(гПа)
Тmin
(С)
Tmax
(С)
R
(мм)
R24
(мм)
S
(см)
В 10 15 км слаб. ливневой дождь 10/8 480 м
[Cu Sc Ci sp]
+25.1 +23.7 92 +34 +34 очень
душно
1012.3 1011.3 +25.0 +30.6 3
В 12 22 км в посл. час ливневой дождь {гроза} 10/8 540 м
[Cu Sc Ci sp]
+25.6 +24.4 93 +36 +36 очень
душно
1012.3 1011.3
В 17 19 км пыль {гроза, ливн. осадки} 9/9 450 м
[Cb cap Ci sp]
+28.6 +24.8 80 +41 +41 опасность
перегрева
1010.7 1009.7 +24.4 +28.6 9
В 12 14 км слаб. дождь 9/8 500 м
[Cu Sc Ac lent Ci sp]
+25.5 +24.1 92 +35 +35 очень
душно
1010.0 1009.0
В 10 18 км пыль {ливн. осадки, дождь} 8/5 540 м
[Cu Sc Ac trans Ci sp]
+26.9 +23.9 84 +37 +37 очень
душно
1010.7 1009.7 +24.4 +29.1 3
В 12 18 км пыль 9/4 540 м
[Cu Sc Ac lent Ci sp]
+27.8 +24.2 81 +39 +39 очень
душно
1011.6 1010.6
В 10 12 км в посл. час ливневой дождь 9/6 500 м
[Cu Sc Ci sp]
+28.9 +25.1 80 +42 +42 опасность
перегрева
1011.9 1010.9 +26.3 +29.1 0.0
ЮВ 18 28 км пыль 9/8 540 м
[Cu Sc Ci sp]
+29.0 +25.6 82 +43 +43 опасность
перегрева
1012.5 1011.5
ЮВ 17 12 км осадки на расстоянии {ливн. осадки} 9/8 480 м
[Cu Sc Ci sp]
+29.6 +25.7 80 +44 +44 опасность
перегрева
1010.0 1009.0 +26.3 +30.4 1
В 10 12 км пыль {ливн. осадки} 8/5 480 м
[Cu Sc Ci sp]
+27.2 +24.9 87 +39 +39 очень
душно
1009.5 1008.5
В 10 22 км пыль {ливн. осадки} 5/3 540 м
[Cu Sc Ci sp]
+27.0 +24.3 85 +38 +38 очень
душно
1010.8 1009.8 +24.4 +30.4 5
В 15 15 км в посл. час ливневой дождь 9/9 480 м
[Cu Sc Ci fib]
+25.3 +24.5 95 +35 +35 очень
душно
1011.9 1010.9
В 7 17 км пыль {ливн. осадки} 8/4 500 м
[Cu Sc Ac trans Ci fib]
+25.8 +24.4 92 +36 +36 очень
душно
1009.8 1008.8 +24.4 +30.4 9
В 5 17 км пыль 5/4 500 м
[Cu Sc Ac trans Ci fib]
+26.5 +24.6 89 +37 +37 очень
душно
1009.9 1008.9
ЮВ 10 9000 м слаб. дождь {гроза} 9/9 420 м
[Cb cap]
+25.9 +24.6 93 +37 +37 очень
душно
1009.7 1008.7
В 6 12 км пыль {гроза} 9/4 500 м
[Cu Sc Ac As Cs]
+25.1 +24.4 96 +35 +35 очень
душно
1010.5 1009.5 +25.1 +30.4
В 3 14 км пыль 9/5 500 м
[Cu Sc Cs]
+25.1 +24.1 94 +35 +35 очень
душно
1011.5 1010.5
штиль 0 14 км пыль 9/3 500 м
[Cu Sc Ci sp]
+25.1 +24.0 94 +35 +35 очень
душно
1010.2 1009.2 +25.0 +29.5
штиль 0 50 км пыль ?/? +24.8 +24.0 95 +34 +34 очень
душно
1010.2 1009.2
В 10 20 км осадки на расстоянии {ливн. осадки} 9/4 540 м
[Sc diur, vesp Ac lent Ci sp]
+26.5 +24.2 87 +37 +37 очень
душно
1012.1 1011.1 +23.9 +29.5 10
ЮВ 10 24 км пыль 9/3 570 м
[Cu med, cong Ci sp]
+29.6 +25.8 80 +44 +45 опасность
перегрева
1012.4 1011.4
ЮВ 12 28 км 9/1 600 м
[Cu med, cong Ac lent Ci sp]
+29.7 +25.1 76 +43 +43 опасность
перегрева
1010.4 1009.4 +23.9 +29.9
В 10 20 км пыль {ливн. осадки} 6/4 480 м
[Cu Sc Ac lent Ci sp]
+27.7 +24.8 84 +39 +39 очень
душно
1012.1 1011.1
В 11 24 км пыль 5/4 540 м
[Cu Sc Ci fib]
+28.0 +24.9 83 +40 +40 очень
душно
1011.0 1010.0
штиль 0 50 км пыль ?/? +27.9 +24.8 83 +40 +40 очень
душно
1011.3 1010.3
В 13 24 км пыль 4/3 540 м
[Cu Sc Ac trans Ci fib]
+29.3 +25.0 78 +42 +42 опасность
перегрева
1012.5 1011.5 +27.6 +29.9
ЮВ 13 20 км осадки на расстоянии 4/4 540 м
[Cu Sc Ci fib]
+30.5 +26.0 77 +46 +46 опасность
перегрева
1013.0 1012.0
ЮВ 11 24 км пыль {ливн. осадки} 4/3 540 м
[Cu Sc Ci sp]
+30.4 +25.0 73 +44 +44 опасность
перегрева
1010.7 1009.7 +27.4 +30.7 0.2
В 14 22 км пыль 4/1
[Cb cap Ac trans Ci ing]
+29.7 +25.2 77 +43 +43 опасность
перегрева
1010.8 1009.8
В 7 22 км пыль 6/1 540 м
[Cu med, cong Ci sp]
+27.8 +24.5 82 +39 +39 очень
душно
1012.4 1011.4 +27.4 +30.7
В 6 24 км пыль 8/4 540 м
[Cu med, cong Ci sp]
+29.2 +25.1 79 +42 +43 опасность
перегрева
1013.7 1012.7 +26.3 +30.7
штиль 0 50 км ?/? +31.5 +25.9 72 +47 +47 опасность
перегрева
1013.6 1012.6
В 15 26 км 9/3 540 м
[Cu med, cong Ci sp]
+30.6 +25.5 74 +45 +45 опасность
перегрева
1011.0 1010.0 +26.3 +31.5
В 12 26 км 8/3 450 м
[Cb cap Ci sp]
+29.6 +24.0 72 +41 +41 опасность
перегрева
1011.0 1010.0
В 5 24 км слаб. ливневой дождь 8/3 540 м
[Cu Sc Ci fib]
+27.0 +25.1 89 +39 +39 очень
душно
1012.2 1011.2 +26.3 +31.5 0.3
нст 2 19 км в посл. час ливневой дождь 5/5 450 м
[Cb cap]
+25.8 +24.0 90 +36 +36 очень
душно
1013.2 1012.2
нст 3 23 км пыль {ливн. осадки} 3/3 540 м
[Cu Sc Ci fib]
+26.5 +24.4 88 +37 +37 очень
душно
1011.5 1010.5 +25.8 +31.5 0.4
штиль 0 18 км пыль {ливн. осадки} 6/4 500 м
[Cu Sc Ci fib]
+25.4 +24.4 94 +35 +35 очень
душно
1011.4 1010.4
В 10 18 км пыль 9/6 450 м
[Cb cap Ci fib]
+29.3 +25.9 82 +44 +44 опасность
перегрева
1013.4 1012.4 +25.2 +31.5 7
В 8 18 км пыль {ливн. осадки} 6/6 540 м
[Cu med, cong Ci fib]
+29.1 +26.2 84 +44 +45 опасность
перегрева
1013.8 1012.8
В 10 18 км пыль {ливн. осадки} 8/6 450 м
[Cb cap Ci fib]
+29.9 +24.8 74 +43 +43 опасность
перегрева
1012.0 1011.0 +25.2 +30.4 11
В 14 18 км пыль 6/4 540 м
[Cu med, cong Ac trans Ci sp]
+29.3 +24.5 75 +41 +41 опасность
перегрева
1011.5 1010.5
В 12 18 км пыль 6/3 540 м
[Cu med, cong Ci sp]
+28.1 +24.3 80 +39 +39 очень
душно
1013.5 1012.5 +25.2 +30.4
Местоположение метеостанции Аэропорт Морис Бишоп (Гренада): широта 12.00 долгота -61.78 высота над уровнем моря 7 м.
В архиве по умолчанию представлена погода в Аэропорту Морис Бишоп за последнюю неделю. Архивные данные за месяц целиком и за предыдущие месяцы, начиная с января 2011 года, Вы можете получить, выбрав интересующий диапазон дат из раскрывающегося списка и нажав кнопку "Найти!".
*Определитесь, кто Вы:
Внимание! Время в таблицах - всемирное. Для получения местного времени необходимо прибавить поправку, которая равна -4 ч.
Смотрите также архив погоды в соседних городах и на ближайших метеорологических станциях:
Партнеры нашего сайта:      
Пояснения к столбцам:
  • Ветер - указаны скорость ветра в м/с - средняя за 10 мин, порывы в срок и между сроками (в фигурных скобках) и направление, откуда дует ветер: С - северный,
  • СВ - северо-восточный, В - восточный, ЮВ - юго-восточный, Ю - южный, ЮЗ - юго-западный, З - западный, СЗ - северо-западный.
  • Видимость - горизонтальная дальность видимости в метрах или километрах. При видимости от 1 до 10 км при отсутствии осадков обычно наблюдается дымка, при ухудшении видимости до 1 км и менее - туман. В сухую погоду видимость может ухудшаться дымом, пылью или мглою.
  • Явления - указаны атмосферные явления, наблюдавшиеся в срок или в последний час перед сроком; фигурными скобками обозначены явления, наблюдавшиеся между сроками (за 1-3 часа до срока); квадратными скобками обозначены град или гололедные отложения с указанием их диаметра в мм.
  • Облачность - указаны через наклонную черту общая и нижняя облачность в баллах и высота нижней границы облаков в метрах; квадратными скобками обозначены формы облаков: Ci - перистые, Cs - перисто-слоистые, Cc - перисто-кучевые, Ac - высококучевые, As - высокослоистые, Sc - слоисто-кучевые, Ns - слоисто-дождевые, Cu - кучевые, Cb - кучево-дождевые. Подробнее классификацию облаков см. в Атласе облаков (PDF).
  • T - Температура воздуха - температура, измеренная на высоте 2 м над землей.
  • Td - Температура точки росы - температура, при понижении до которой содержащийся в воздухе водяной пар достигнет насыщения.
  • f - Относительная влажность воздуха - влажноcть воздуха, измеренная на высоте 2 м над землей.
  • Te - Эффективная температура - температура, которую ощущает одетый по сезону человек в тени. Характеристика душности погоды. При расчете учитывается влияние влажности воздуха и скорости ветра на теплоощущения человека.
  • Tes - Эффективная температура на солнце - температура, которую ощущает человек, с поправкой на солнечный нагрев. Характеристика знойности погоды. Зависит от высоты солнца над горизонтом, облачности и скорости ветра. Ночью, в пасмурную погоду, а также при ветре 12 м/с и более поправка равна нулю.
  • P - Атмосферное давление - приведенное к уровню моря атмосферное давление.
  • Po - Атмосферное давление - измеренное на уровне метеостанции атмосферное давление.
  • Tmin - Минимальная температура - минимум температуры воздуха на высоте 2 м над землей.
  • Tmax - Максимальная температура - максимум температуры воздуха на высоте 2 м над землей.
  • R - Количество осадков - Количество выпавших осадков за период времени, мм. При наведении курсора мыши на число - период времени, за который выпало указанное количество осадков.
  • R24 - Количество осадков - Количество выпавших осадков за 24 часа, мм.
  • S - Снежный покров - Высота снежного покрова, см. При наведении курсора мыши на число - состояние снежного покрова и степень покрытия местности в баллах.